Location: Newark
(34.6283°N, 36.0776°E)
Time: 17:11:17
(UTC+00:00)

Tiros 1 - Visible Passes

Search period start: 18 October 2019 00:00
Search period end: 28 October 2019 00:00
Orbit: 630 x 664 km, 48.4° (Epoch: 17 October)

Date Brightness Start Highest point End Pass type
(mag) Time Alt. Az. Time Alt. Az. Time Alt. Az.
18 Oct 9.6 01:01:13 16° NNE 01:01:13 16° NNE 01:02:28 10° NE visible
18 Oct 9.3 02:38:53 10° NW 02:41:47 16° N 02:44:39 10° NNE visible
19 Oct 9.3 01:26:14 17° N 01:26:14 17° N 01:28:21 10° NNE visible
19 Oct 9.3 03:05:36 10° NNW 03:08:35 16° N 03:11:35 10° NE visible
20 Oct 9.3 01:51:14 15° N 01:51:40 16° N 01:54:34 10° NNE visible
21 Oct 9.4 02:16:14 12° NNW 02:18:29 16° N 02:21:26 10° NE visible
22 Oct 9.9 01:03:34 13° NNE 01:03:34 13° NNE 01:04:30 10° NNE visible
22 Oct 9.2 02:41:41 10° NNW 02:45:14 20° NNE 02:48:46 10° ENE visible
23 Oct 9.5 01:28:36 16° N 01:28:36 16° N 01:31:17 10° NE visible
23 Oct 8.7 03:07:33 10° NW 03:11:48 30° NNE 03:16:02 10° E visible
24 Oct 9.2 01:53:40 17° N 01:55:08 19° NNE 01:58:36 10° ENE visible
25 Oct 10.2 00:41:07 10° NE 00:41:07 10° NE 00:41:08 10° NE visible
25 Oct 8.8 02:18:47 16° NNW 02:21:44 28° NNE 02:25:53 10° E visible
26 Oct 9.6 01:06:18 17° NNE 01:06:18 17° NNE 01:08:25 10° ENE visible
26 Oct 7.9 02:43:58 13° NW 02:48:06 51° NNE 02:52:47 10° ESE visible
27 Oct 8.8 01:31:33 27° NNE 01:31:39 27° NNE 01:35:44 10° E visible
27 Oct 7.2 03:09:25 10° NW 03:14:13 74° SW 03:19:00 10° SE visible
